Skip Page Navigation
NASA JPL Caltech
NASA Logo - Jet Propulsion Laboratory + View the NASA Portal
+ Near-Earth Object (NEO) Program
Search JPL
JPL Home Earth Solar System Stars & Galaxies Technology
JPL Solar System Dynamics
BODIES ORBITS EPHEMERIDES TOOLS PHYSICAL DATA DISCOVERY FAQ SITE MAP
JPL Small-Body Database Browser
Search: [ help ]  
(2002 QW47)
Classification: Apollo [NEO, PHA]          SPK-ID: 3134277
Ephemeris | Orbit Diagram | Orbital Elements | Physical Parameters | Close-Approach Data ]

[ hide orbit diagram ]
Orbit Diagram
Note: Make sure you have Java enabled on your browser to see the applet. This applet is provided as a 3D orbit visualization tool. The applet was implemented using 2-body methods, and hence should not be used for determining accurate long-term trajectories (over several years or decades) or planetary encounter circumstances. For accurate long-term ephemerides, please instead use our Horizons system.
Orbit Viewer

Additional Notes: the orbits shown in the applet are color coded. The planets are white lines, and the asteroid/comet is a blue line. The bright white line indicates the portion of the orbit that is above the ecliptic plane, and the darker portion is below the ecliptic plane. Likewise for the asteroid/comet orbit, the light blue indicates the portion above the ecliptic plane, and the dark blue the portion below the ecliptic plane.

Orbit Viewer applet originally written and kindly provided by Osamu Ajiki (AstroArts), and further modified by Ron Baalke (JPL).


Orbital Elements at Epoch 2456400.5 (2013-Apr-18.0) TDB
Reference: JPL 15 (heliocentric ecliptic J2000)
 Element Value Uncertainty (1-sigma)   Units 
e .5186490851466289 2.0517e-07  
a 1.970960455489145 4.2893e-07 AU
q .948723618389517 2.5672e-07 AU
i 4.221152041916969 3.1819e-05 deg
node 116.3149575338279 0.00038159 deg
peri 140.9065299382535 0.00036392 deg
M 327.1555651987227 0.00048719 deg
tp 2456492.709270287332
(2013-Jul-19.20927029)
0.0013978 JED
period 1010.683773500299
2.77
0.00032992
9.033e-07
d
yr
n .3561944986543247 1.1628e-07 deg/d
Q 2.993197292588773 6.5139e-07 AU
  Orbit Determination Parameters
   # obs. used (total)      51  
   data-arc span      1352 days (3.70 yr)  
   first obs. used      2002-02-22  
   last obs. used      2005-11-05  
   planetary ephem.      DE405  
   SB-pert. ephem.      SB405-CPV-2  
   condition code      1  
   fit RMS      .62502  
   data source      ORB  
   producer      Otto Matic  
   solution date      2011-Dec-03 00:59:33  

Additional Information
 Earth MOID = .00342391 AU 
 T_jup = 3.690 
[ show covariance matrix ]

Ephemeris | Orbit Diagram | Orbital Elements | Physical Parameters | Close-Approach Data ]

Physical Parameter Table
Parameter Symbol Value Units Sigma Reference Notes
absolute magnitude H 20.685 mag .46975 15 autocmod 2.5a

[ show close-approach data ]
Ephemeris | Orbit Diagram | Orbital Elements | Physical Parameters | Close-Approach Data ]
ABOUT SSD CREDITS/AWARDS PRIVACY/COPYRIGHT GLOSSARY LINKS
FirstGov 2013-May-20 14:25 UT
(server date/time)  
NASA Home Page
Site Manager:   Donald K. Yeomans
Webmaster  Alan B. Chamberlin